Time,TemperatureF,DewpointF,PressureIn,WindDirection,WindDirectionDegrees,WindSpeedMPH,WindSpeedGustMPH,Humidity,HourlyPrecipIn,Conditions,Clouds,dailyrainin,SoftwareType,DateUTC
2013-01-11 00:03:00,57.0,56.0,29.89,SSE,148,12.0,18.0,96,0.04,,,0.69,,2013-01-11 06:03:00,
2013-01-11 00:12:00,57.0,56.0,29.89,SSE,148,12.0,18.0,96,0.04,,,0.69,,2013-01-11 06:12:00,
2013-01-11 00:22:00,57.0,56.0,29.89,SSE,148,12.0,18.0,96,0.04,,,0.69,,2013-01-11 06:22:00,
2013-01-11 00:32:00,58.0,57.0,29.88,SSE,163,11.0,18.0,96,0.10,,,0.76,,2013-01-11 06:32:00,
2013-01-11 00:42:00,58.0,57.0,29.88,SSE,163,11.0,18.0,96,0.10,,,0.76,,2013-01-11 06:42:00,
2013-01-11 00:52:00,58.0,57.0,29.88,SSE,157,12.0,19.0,96,0.12,,,0.79,,2013-01-11 06:52:00,
2013-01-11 01:02:00,59.0,58.0,29.89,South,189,15.0,19.0,97,0.15,,,0.84,,2013-01-11 07:02:00,
2013-01-11 01:12:00,59.0,58.0,29.89,South,189,15.0,19.0,97,0.15,,,0.84,,2013-01-11 07:12:00,
2013-01-11 01:22:00,59.0,57.0,29.88,SSE,156,10.0,19.0,94,0.15,,,0.88,,2013-01-11 07:22:00,
2013-01-11 01:32:00,59.0,57.0,29.86,South,169,10.0,18.0,93,0.17,,,0.93,,2013-01-11 07:32:00,
2013-01-11 01:42:00,59.0,57.0,29.86,South,169,10.0,18.0,93,0.17,,,0.93,,2013-01-11 07:42:00,
2013-01-11 01:52:00,59.0,57.0,29.86,South,169,10.0,18.0,93,0.17,,,0.93,,2013-01-11 07:52:00,
2013-01-11 02:02:00,58.0,56.0,29.88,SE,144,7.0,12.0,93,0.19,,,1.03,,2013-01-11 08:02:00,
2013-01-11 02:12:00,58.0,56.0,29.87,South,182,8.0,12.0,94,0.19,,,1.07,,2013-01-11 08:12:00,
2013-01-11 02:22:00,58.0,56.0,29.87,South,182,8.0,12.0,94,0.19,,,1.07,,2013-01-11 08:22:00,
2013-01-11 02:32:00,58.0,56.0,29.87,SSE,167,6.0,11.0,93,0.18,,,1.11,,2013-01-11 08:32:00,
2013-01-11 02:42:00,58.0,56.0,29.87,SSE,167,6.0,11.0,93,0.18,,,1.11,,2013-01-11 08:42:00,
2013-01-11 02:53:00,58.0,56.0,29.87,South,178,9.0,12.0,94,0.16,,,1.13,,2013-01-11 08:53:00,
2013-01-11 03:02:00,58.0,56.0,29.86,South,186,7.0,14.0,94,0.15,,,1.18,,2013-01-11 09:02:00,
2013-01-11 03:12:00,58.0,56.0,29.86,South,186,7.0,14.0,94,0.15,,,1.18,,2013-01-11 09:12:00,
2013-01-11 03:22:00,57.0,55.0,29.86,SSW,192,10.0,14.0,94,0.14,,,1.21,,2013-01-11 09:22:00,
2013-01-11 03:32:00,57.0,55.0,29.85,South,186,7.0,12.0,94,0.12,,,1.23,,2013-01-11 09:32:00,
2013-01-11 03:42:00,57.0,55.0,29.85,South,186,7.0,12.0,94,0.12,,,1.23,,2013-01-11 09:42:00,
2013-01-11 03:52:00,56.0,55.0,29.84,South,183,7.0,13.0,95,0.10,,,1.25,,2013-01-11 09:52:00,
2013-01-11 04:02:00,56.0,54.0,29.86,SSW,194,9.0,12.0,94,0.09,,,1.27,,2013-01-11 10:02:00,
2013-01-11 04:12:00,56.0,54.0,29.86,SSW,194,9.0,12.0,94,0.09,,,1.27,,2013-01-11 10:12:00,
2013-01-11 04:22:00,56.0,54.0,29.85,SSW,195,11.0,20.0,94,0.07,,,1.28,,2013-01-11 10:22:00,
2013-01-11 04:32:00,56.0,55.0,29.85,SW,214,10.0,16.0,95,0.05,,,1.28,,2013-01-11 10:32:00,
2013-01-11 04:42:00,56.0,55.0,29.85,SW,214,10.0,16.0,95,0.05,,,1.28,,2013-01-11 10:42:00,
2013-01-11 04:52:00,56.0,55.0,29.86,SW,221,10.0,14.0,95,0.03,,,1.28,,2013-01-11 10:52:00,
2013-01-11 05:02:00,56.0,55.0,29.86,SSW,201,10.0,13.0,95,0.01,,,1.28,,2013-01-11 11:02:00,
2013-01-11 05:12:00,56.0,55.0,29.86,SSW,201,10.0,13.0,95,0.01,,,1.28,,2013-01-11 11:12:00,
2013-01-11 05:22:00,55.0,54.0,29.86,SSW,202,8.0,11.0,95,0.00,,,1.28,,2013-01-11 11:22:00,
2013-01-11 05:33:00,55.0,54.0,29.87,SW,215,9.0,12.0,95,0.00,,,1.28,,2013-01-11 11:33:00,
2013-01-11 05:42:00,55.0,54.0,29.87,SW,215,9.0,12.0,95,0.00,,,1.28,,2013-01-11 11:42:00,
2013-01-11 05:53:00,54.0,53.0,29.87,SW,217,6.0,9.0,95,0.00,,,1.28,,2013-01-11 11:53:00,
2013-01-11 06:03:00,54.0,53.0,29.87,SSW,211,6.0,10.0,95,0.00,,,1.28,,2013-01-11 12:03:00,
2013-01-11 06:12:00,54.0,53.0,29.87,SSW,211,6.0,10.0,95,0.00,,,1.28,,2013-01-11 12:12:00,
2013-01-11 06:22:00,54.0,53.0,29.88,SW,221,7.0,9.0,95,0.00,,,1.28,,2013-01-11 12:22:00,
2013-01-11 06:32:00,54.0,53.0,29.88,SSW,198,8.0,11.0,95,0.00,,,1.28,,2013-01-11 12:32:00,
2013-01-11 06:42:00,54.0,53.0,29.88,SSW,198,8.0,11.0,95,0.00,,,1.28,,2013-01-11 12:42:00,
2013-01-11 06:53:00,54.0,53.0,29.89,SW,219,8.0,11.0,95,0.00,,,1.28,,2013-01-11 12:53:00,
2013-01-11 07:02:00,54.0,53.0,29.89,SSW,211,7.0,9.0,95,0.00,,,1.28,,2013-01-11 13:02:00,
2013-01-11 07:13:00,54.0,53.0,29.89,SSW,211,7.0,9.0,95,0.00,,,1.28,,2013-01-11 13:13:00,
2013-01-11 07:22:00,53.0,52.0,29.91,SW,234,5.0,9.0,95,0.00,,,1.28,,2013-01-11 13:22:00,
2013-01-11 07:33:00,53.0,52.0,29.92,SW,229,7.0,11.0,95,0.00,,,1.28,,2013-01-11 13:33:00,
2013-01-11 07:42:00,53.0,52.0,29.92,SW,229,7.0,11.0,95,0.00,,,1.28,,2013-01-11 13:42:00,
2013-01-11 07:53:00,53.0,51.0,29.92,SW,215,10.0,13.0,94,0.00,,,1.28,,2013-01-11 13:53:00,
2013-01-11 08:03:00,53.0,51.0,29.93,SW,217,7.0,12.0,93,0.00,,,1.28,,2013-01-11 14:03:00,
2013-01-11 08:12:00,53.0,51.0,29.93,SW,217,7.0,12.0,93,0.00,,,1.28,,2013-01-11 14:12:00,
2013-01-11 08:23:00,53.0,51.0,29.93,SW,219,8.0,11.0,94,0.00,,,1.28,,2013-01-11 14:23:00,
2013-01-11 08:33:00,54.0,52.0,29.94,SW,219,8.0,10.0,93,0.00,,,1.28,,2013-01-11 14:33:00,
2013-01-11 08:42:00,54.0,52.0,29.94,SW,219,8.0,10.0,93,0.00,,,1.28,,2013-01-11 14:42:00,
2013-01-11 08:53:00,54.0,52.0,29.95,SW,230,7.0,10.0,93,0.00,,,1.28,,2013-01-11 14:53:00,
2013-01-11 09:03:00,53.0,51.0,29.95,WSW,238,6.0,9.0,93,0.00,,,1.28,,2013-01-11 15:03:00,
2013-01-11 09:13:00,54.0,51.0,29.95,SW,220,11.0,16.0,89,0.00,,,1.28,,2013-01-11 15:13:00,
2013-01-11 09:23:00,54.0,51.0,29.95,SW,220,11.0,16.0,89,0.00,,,1.28,,2013-01-11 15:23:00,
2013-01-11 09:32:00,54.0,51.0,29.95,SW,220,11.0,16.0,89,0.00,,,1.28,,2013-01-11 15:32:00,
2013-01-11 09:43:00,54.0,51.0,29.95,SW,220,11.0,16.0,89,0.00,,,1.28,,2013-01-11 15:43:00,
2013-01-11 09:53:00,54.0,50.0,29.96,SW,236,8.0,14.0,86,0.00,,,1.28,,2013-01-11 15:53:00,
2013-01-11 10:03:00,54.0,50.0,29.96,SW,230,7.0,13.0,87,0.00,,,1.28,,2013-01-11 16:03:00,
2013-01-11 10:12:00,56.0,52.0,29.95,SW,216,11.0,14.0,85,0.00,,,1.28,,2013-01-11 16:12:00,
2013-01-11 10:22:00,56.0,52.0,29.95,SW,216,11.0,14.0,85,0.00,,,1.28,,2013-01-11 16:22:00,
2013-01-11 10:33:00,56.0,51.0,29.95,SSW,213,8.0,13.0,83,0.00,,,1.28,,2013-01-11 16:33:00,
2013-01-11 10:42:00,56.0,51.0,29.95,SSW,213,8.0,13.0,83,0.00,,,1.28,,2013-01-11 16:42:00,
2013-01-11 10:53:00,56.0,51.0,29.95,WSW,244,9.0,14.0,83,0.00,,,1.28,,2013-01-11 16:53:00,
2013-01-11 11:03:00,56.0,51.0,29.94,SW,222,10.0,18.0,83,0.00,,,1.28,,2013-01-11 17:03:00,
2013-01-11 11:12:00,56.0,51.0,29.94,SW,222,10.0,18.0,83,0.00,,,1.28,,2013-01-11 17:12:00,
2013-01-11 11:22:00,56.0,51.0,29.94,SSW,211,11.0,16.0,83,0.00,,,1.28,,2013-01-11 17:22:00,
2013-01-11 11:33:00,57.0,52.0,29.93,SSW,213,11.0,14.0,84,0.00,,,1.27,,2013-01-11 17:33:00,
2013-01-11 11:43:00,57.0,52.0,29.93,SSW,213,11.0,14.0,84,0.00,,,1.27,,2013-01-11 17:43:00,
2013-01-11 11:53:00,56.0,51.0,29.93,SW,221,11.0,15.0,84,0.00,,,1.27,,2013-01-11 17:53:00,
2013-01-11 12:03:00,56.0,52.0,29.92,SW,235,9.0,12.0,85,0.00,,,1.27,,2013-01-11 18:03:00,
2013-01-11 12:12:00,56.0,52.0,29.92,SW,235,9.0,12.0,85,0.00,,,1.27,,2013-01-11 18:12:00,
2013-01-11 12:23:00,57.0,53.0,29.92,SW,229,9.0,14.0,85,0.00,,,1.27,,2013-01-11 18:23:00,
2013-01-11 12:33:00,57.0,52.0,29.91,SSW,202,11.0,14.0,84,0.00,,,1.06,,2013-01-11 18:33:00,
2013-01-11 12:43:00,57.0,52.0,29.91,SSW,202,11.0,14.0,84,0.00,,,1.06,,2013-01-11 18:43:00,
2013-01-11 12:53:00,57.0,52.0,29.91,SSW,202,11.0,14.0,84,0.00,,,1.06,,2013-01-11 18:53:00,
2013-01-11 13:02:00,57.0,52.0,29.90,South,188,14.0,19.0,83,0.00,,,1.06,,2013-01-11 19:02:00,
2013-01-11 13:12:00,57.0,52.0,29.90,South,188,14.0,19.0,83,0.00,,,1.06,,2013-01-11 19:12:00,
2013-01-11 13:22:00,57.0,52.0,29.90,SSW,192,15.0,21.0,83,0.00,,,1.06,,2013-01-11 19:22:00,
2013-01-11 13:32:00,58.0,53.0,29.90,SW,215,12.0,19.0,82,0.00,,,0.85,,2013-01-11 19:32:00,
2013-01-11 13:43:00,58.0,53.0,29.90,SW,215,12.0,19.0,82,0.00,,,0.85,,2013-01-11 19:43:00,
2013-01-11 13:53:00,59.0,53.0,29.89,South,182,13.0,23.0,81,0.00,,,0.85,,2013-01-11 19:53:00,
2013-01-11 14:03:00,58.0,52.0,29.89,South,182,17.0,25.0,80,0.00,,,0.85,,2013-01-11 20:03:00,
2013-01-11 14:12:00,58.0,52.0,29.89,South,182,17.0,25.0,80,0.00,,,0.85,,2013-01-11 20:12:00,
2013-01-11 14:22:00,58.0,52.0,29.90,SSW,201,11.0,18.0,81,0.00,,,0.85,,2013-01-11 20:22:00,
2013-01-11 14:33:00,59.0,53.0,29.90,SSW,193,11.0,20.0,81,0.00,,,0.74,,2013-01-11 20:33:00,
2013-01-11 14:43:00,59.0,53.0,29.90,SSW,193,11.0,20.0,81,0.00,,,0.74,,2013-01-11 20:43:00,
2013-01-11 14:53:00,59.0,53.0,29.90,SSW,213,12.0,23.0,80,0.00,,,0.74,,2013-01-11 20:53:00,
2013-01-11 15:03:00,59.0,53.0,29.89,SSW,197,11.0,22.0,80,0.00,,,0.74,,2013-01-11 21:03:00,
2013-01-11 15:12:00,59.0,53.0,29.89,SSW,197,11.0,22.0,80,0.00,,,0.74,,2013-01-11 21:12:00,
2013-01-11 15:23:00,58.0,51.0,29.90,South,188,15.0,22.0,78,0.00,,,0.74,,2013-01-11 21:23:00,
2013-01-11 15:33:00,59.0,52.0,29.89,SSW,205,14.0,20.0,77,0.00,,,0.67,,2013-01-11 21:33:00,
2013-01-11 15:42:00,59.0,52.0,29.89,SSW,205,14.0,20.0,77,0.00,,,0.67,,2013-01-11 21:42:00,
2013-01-11 15:53:00,58.0,51.0,29.89,South,188,14.0,20.0,78,0.00,,,0.67,,2013-01-11 21:53:00,
2013-01-11 16:02:00,58.0,52.0,29.89,South,183,16.0,21.0,79,0.00,,,0.67,,2013-01-11 22:02:00,
2013-01-11 16:12:00,58.0,52.0,29.89,South,183,16.0,21.0,79,0.00,,,0.67,,2013-01-11 22:12:00,
2013-01-11 16:22:00,57.0,52.0,29.89,SSW,199,12.0,19.0,82,0.00,,,0.67,,2013-01-11 22:22:00,
2013-01-11 16:33:00,57.0,52.0,29.89,South,188,11.0,16.0,82,0.00,,,0.67,,2013-01-11 22:33:00,
2013-01-11 16:42:00,57.0,52.0,29.89,South,188,11.0,16.0,82,0.00,,,0.67,,2013-01-11 22:42:00,
2013-01-11 16:53:00,56.0,51.0,29.89,South,186,10.0,18.0,83,0.00,,,0.67,,2013-01-11 22:53:00,
2013-01-11 17:02:00,55.0,50.0,29.90,South,190,8.0,14.0,84,0.00,,,0.67,,2013-01-11 23:02:00,
2013-01-11 17:13:00,55.0,50.0,29.90,South,190,8.0,14.0,84,0.00,,,0.67,,2013-01-11 23:13:00,
2013-01-11 17:22:00,55.0,50.0,29.90,SSW,193,8.0,12.0,84,0.00,,,0.67,,2013-01-11 23:22:00,
2013-01-11 17:32:00,55.0,50.0,29.91,SSW,203,7.0,10.0,84,0.00,,,0.67,,2013-01-11 23:32:00,
2013-01-11 17:43:00,55.0,50.0,29.91,SSW,203,7.0,10.0,84,0.00,,,0.67,,2013-01-11 23:43:00,
2013-01-11 17:53:00,54.0,50.0,29.90,SSE,166,8.0,12.0,85,0.00,,,0.67,,2013-01-11 23:53:00,
2013-01-11 18:02:00,55.0,50.0,29.90,South,169,8.0,12.0,84,0.00,,,0.67,,2013-01-12 00:02:00,
2013-01-11 18:12:00,54.0,50.0,29.90,South,188,8.0,10.0,85,0.00,,,0.67,,2013-01-12 00:12:00,
2013-01-11 18:23:00,54.0,50.0,29.90,South,188,8.0,10.0,85,0.00,,,0.67,,2013-01-12 00:23:00,
2013-01-11 18:32:00,54.0,50.0,29.91,South,186,8.0,11.0,85,0.00,,,0.67,,2013-01-12 00:32:00,
2013-01-11 18:42:00,54.0,50.0,29.91,South,186,8.0,11.0,85,0.00,,,0.67,,2013-01-12 00:42:00,
2013-01-11 18:53:00,54.0,50.0,29.91,South,177,10.0,15.0,85,0.00,,,0.67,,2013-01-12 00:53:00,
2013-01-11 19:02:00,54.0,50.0,29.90,South,186,9.0,14.0,85,0.00,,,0.67,,2013-01-12 01:02:00,
2013-01-11 19:12:00,54.0,50.0,29.90,South,186,9.0,14.0,85,0.00,,,0.67,,2013-01-12 01:12:00,
2013-01-11 19:22:00,54.0,49.0,29.90,SSW,203,10.0,13.0,84,0.00,,,0.67,,2013-01-12 01:22:00,
2013-01-11 19:32:00,54.0,49.0,29.90,South,186,9.0,12.0,84,0.00,,,0.67,,2013-01-12 01:32:00,
2013-01-11 19:42:00,54.0,49.0,29.90,South,186,9.0,12.0,84,0.00,,,0.67,,2013-01-12 01:42:00,
2013-01-11 19:52:00,54.0,49.0,29.89,SSW,196,10.0,16.0,84,0.00,,,0.67,,2013-01-12 01:52:00,
2013-01-11 20:02:00,54.0,49.0,29.89,SSW,192,12.0,16.0,83,0.00,,,0.67,,2013-01-12 02:02:00,
2013-01-11 20:12:00,54.0,49.0,29.89,SSW,192,12.0,16.0,83,0.00,,,0.67,,2013-01-12 02:12:00,
2013-01-11 20:22:00,54.0,49.0,29.90,SSW,192,10.0,14.0,84,0.00,,,0.67,,2013-01-12 02:22:00,
2013-01-11 20:32:00,54.0,49.0,29.90,SSW,192,10.0,14.0,84,0.00,,,0.67,,2013-01-12 02:32:00,
2013-01-11 20:43:00,54.0,49.0,29.90,SSW,192,10.0,14.0,84,0.00,,,0.67,,2013-01-12 02:43:00,
2013-01-11 20:52:00,53.0,49.0,29.90,SSW,192,11.0,15.0,85,0.00,,,0.67,,2013-01-12 02:52:00,
2013-01-11 21:02:00,53.0,49.0,29.90,South,187,11.0,15.0,86,0.00,,,0.67,,2013-01-12 03:02:00,
2013-01-11 21:12:00,53.0,49.0,29.90,South,187,11.0,15.0,86,0.00,,,0.67,,2013-01-12 03:12:00,
2013-01-11 21:22:00,53.0,49.0,29.90,SSW,200,8.0,13.0,85,0.00,,,0.67,,2013-01-12 03:22:00,
2013-01-11 21:33:00,53.0,49.0,29.91,South,183,8.0,12.0,85,0.00,,,0.67,,2013-01-12 03:33:00,
2013-01-11 21:43:00,53.0,49.0,29.91,South,183,8.0,12.0,85,0.00,,,0.67,,2013-01-12 03:43:00,
2013-01-11 21:52:00,53.0,49.0,29.91,SSW,197,9.0,12.0,85,0.00,,,0.67,,2013-01-12 03:52:00,
2013-01-11 22:02:00,52.0,48.0,29.91,SSW,192,7.0,11.0,85,0.00,,,0.67,,2013-01-12 04:02:00,
2013-01-11 22:12:00,52.0,48.0,29.91,SSW,192,7.0,11.0,85,0.00,,,0.67,,2013-01-12 04:12:00,
2013-01-11 22:22:00,52.0,48.0,29.91,South,190,9.0,13.0,85,0.00,,,0.67,,2013-01-12 04:22:00,
2013-01-11 22:32:00,53.0,49.0,29.90,South,188,9.0,14.0,85,0.00,,,0.67,,2013-01-12 04:32:00,
2013-01-11 22:42:00,53.0,49.0,29.90,South,188,9.0,14.0,85,0.00,,,0.67,,2013-01-12 04:42:00,
2013-01-11 22:52:00,53.0,49.0,29.90,South,188,9.0,14.0,85,0.00,,,0.67,,2013-01-12 04:52:00,
2013-01-11 23:03:00,52.0,48.0,29.89,South,180,8.0,12.0,85,0.00,,,0.67,,2013-01-12 05:03:00,
2013-01-11 23:12:00,52.0,48.0,29.89,South,180,8.0,12.0,85,0.00,,,0.67,,2013-01-12 05:12:00,
2013-01-11 23:22:00,52.0,48.0,29.89,South,180,8.0,12.0,85,0.00,,,0.67,,2013-01-12 05:22:00,
2013-01-11 23:32:00,52.0,48.0,29.89,SSW,192,9.0,15.0,85,0.00,,,0.67,,2013-01-12 05:32:00,
2013-01-11 23:42:00,52.0,48.0,29.89,SSW,192,9.0,15.0,85,0.00,,,0.67,,2013-01-12 05:42:00,
2013-01-11 23:52:00,52.0,48.0,29.89,South,179,8.0,10.0,86,0.00,,,0.62,,2013-01-12 05:52:00,